Date String (YYYY-MM-DD hh:mm:ss) UTC,Instrument flags,Ambient pressure (hPa),Sample flow (lpm),Bypass flow (lpm),Sample temperature (°C),Ambient temperature (°C),ASC tube jacket temperature (°C),LED temperature (°C),Box temperature (°C),Sample RH (%),Span deviation,Mass concentration (μg/m³),Mass concentration (μg/m³),Mass concentration (μg/m³)
DateTimeUTC,F1_M11,P_M11,Q1_M11,Q2_M11,T1_M11,T2_M11,T3_M11,T4_M11,T5_M11,U1_M11,ZSPAN_M11,X2_M11,X0_M11,X1_M11
2022-02-16 23:00:00,,0818.5,4.99,0.00,22.5,23.1,00.0,31.3,24.4,15.7,0001.6,0006.38,0009.48,0005.90
2022-02-16 23:01:00,,0818.4,5.00,0.00,22.5,22.8,00.0,31.4,24.5,15.7,0001.9,0006.42,0009.57,0005.90
2022-02-16 23:02:00,,0818.4,5.00,0.00,22.5,22.6,00.0,31.4,24.4,15.7,0001.4,0006.44,0009.66,0005.90
2022-02-16 23:03:00,,0818.5,5.00,0.00,22.5,22.4,00.0,31.4,24.3,15.6,0001.8,0006.39,0009.51,0005.88
2022-02-16 23:04:00,,0818.5,4.99,0.00,22.5,22.3,00.0,31.4,24.3,15.5,0002.0,0006.37,0009.38,0005.87
2022-02-16 23:05:00,,0818.5,5.01,0.00,22.5,22.1,00.0,31.4,24.2,15.5,0002.1,0006.35,0009.36,0005.84
2022-02-16 23:06:00,,0818.5,5.00,0.00,22.4,22.0,00.0,31.4,24.2,15.5,0001.8,0006.31,0009.37,0005.81
2022-02-16 23:07:00,,0818.5,4.99,0.00,22.4,21.9,00.0,31.4,24.1,15.5,0001.9,0006.27,0009.64,0005.77
2022-02-16 23:08:00,,0818.6,5.02,0.00,22.4,21.8,00.0,31.4,24.1,15.5,0001.9,0006.21,0009.55,0005.73
2022-02-16 23:09:00,,0818.6,4.99,0.00,22.4,21.8,00.0,31.4,24.1,15.5,0002.2,0006.15,0009.57,0005.69
2022-02-16 23:10:00,,0818.8,4.99,0.00,22.4,21.7,00.0,31.4,24.1,15.6,0001.3,0006.10,0009.48,0005.65
2022-02-16 23:11:00,,0818.8,5.01,0.00,22.3,21.7,00.0,31.4,24.0,15.6,0001.7,0006.06,0009.86,0005.62
2022-02-16 23:12:00,,0818.8,4.99,0.00,22.3,21.6,00.0,31.4,24.0,15.6,0001.5,0006.07,0010.02,0005.62
2022-02-16 23:13:00,,0818.8,4.99,0.00,22.3,21.6,00.0,31.4,24.0,15.7,0001.7,0006.05,0009.95,0005.62
2022-02-16 23:14:00,,0818.7,5.01,0.00,22.3,21.6,00.0,31.3,24.0,15.8,0001.3,0006.07,0009.90,0005.65
2022-02-16 23:15:00,,0818.7,4.99,0.00,22.3,21.6,00.0,31.3,24.0,15.8,0001.0,0006.14,0010.02,0005.70
2022-02-16 23:16:00,,0818.7,4.99,0.00,22.2,21.5,00.0,31.3,24.0,15.8,0000.9,0006.21,0010.12,0005.75
2022-02-16 23:17:00,,0818.8,5.02,0.00,22.2,21.5,00.0,31.3,23.9,15.9,0000.4,0006.25,0010.15,0005.79
2022-02-16 23:18:00,,0818.8,4.99,0.00,22.2,21.4,00.0,31.3,23.9,15.9,-000.1,0006.31,0009.85,0005.84
2022-02-16 23:19:00,,0818.8,5.00,0.00,22.2,21.4,00.0,31.3,23.9,15.9,-000.1,0006.34,0009.85,0005.86
2022-02-16 23:20:00,,0818.8,4.99,0.00,22.2,21.4,00.0,31.3,23.9,16.0,-000.3,0006.35,0009.73,0005.88
2022-02-16 23:21:00,,0818.8,5.01,0.00,22.1,21.4,00.0,31.3,23.8,16.0,-000.6,0006.36,0009.72,0005.89
2022-02-16 23:22:00,,0818.8,5.00,0.00,22.2,21.8,00.0,31.3,23.9,16.0,-000.6,0006.35,0009.11,0005.90
2022-02-16 23:23:00,,0818.8,4.99,0.00,22.3,22.6,00.0,31.3,24.2,15.9,-000.5,0006.36,0009.07,0005.89
2022-02-16 23:24:00,,0818.9,5.00,0.00,22.4,23.2,00.0,31.3,24.4,15.7,-000.2,0006.31,0009.03,0005.83
2022-02-16 23:25:00,,0818.9,5.00,0.00,22.5,23.1,00.0,31.4,24.5,15.6,-000.2,0006.23,0008.94,0005.77
2022-02-16 23:26:00,,0818.9,4.98,0.00,22.5,22.8,00.0,31.4,24.4,15.6,-000.6,0006.13,0008.79,0005.71
2022-02-16 23:27:00,,0818.9,5.01,0.00,22.5,22.6,00.0,31.4,24.3,15.6,-000.2,0006.05,0008.70,0005.63
2022-02-16 23:28:00,,0818.9,5.00,0.00,22.5,22.4,00.0,31.4,24.2,15.6,0000.7,0005.98,0008.62,0005.57
2022-02-16 23:29:00,,0818.9,4.99,0.00,22.4,22.2,00.0,31.4,24.2,15.6,0001.1,0005.90,0008.53,0005.52
2022-02-16 23:30:00,,0818.9,4.99,0.00,22.4,22.1,00.0,31.4,24.2,15.6,0001.5,0005.87,0008.54,0005.48
2022-02-16 23:31:00,,0819.0,5.00,0.00,22.4,22.0,00.0,31.4,24.1,15.7,0001.4,0005.84,0008.53,0005.44
2022-02-16 23:32:00,,0818.9,5.02,0.00,22.4,21.9,00.0,31.4,24.1,15.6,0001.7,0005.81,0008.51,0005.40
2022-02-16 23:33:00,,0819.0,4.99,0.00,22.3,21.8,00.0,31.4,24.0,15.6,0001.7,0005.75,0008.50,0005.34
2022-02-16 23:34:00,,0819.0,5.00,0.00,22.3,21.7,00.0,31.4,24.0,15.6,0000.0,0005.60,0008.18,0005.26
2022-02-16 23:35:00,,0819.0,5.01,0.00,22.3,21.7,00.0,31.4,24.0,15.6,0000.0,0005.54,0008.12,0005.20
2022-02-16 23:36:00,,0819.1,5.00,0.00,22.3,21.6,00.0,31.3,24.0,15.6,0001.5,0005.51,0008.15,0005.16
2022-02-16 23:37:00,,0819.1,4.99,0.00,22.3,21.6,00.0,31.3,24.0,15.6,0002.6,0005.46,0008.13,0005.10
2022-02-16 23:38:00,,0819.2,5.00,0.00,22.3,21.5,00.0,31.3,24.0,15.6,0002.2,0005.42,0008.05,0005.06
2022-02-16 23:39:00,,0819.2,5.01,0.00,22.2,21.5,00.0,31.3,24.0,15.6,0000.5,0005.39,0008.04,0005.03
2022-02-16 23:40:00,,0819.3,5.00,0.00,22.2,21.5,00.0,31.3,23.9,15.6,0000.0,0005.37,0008.04,0004.98
2022-02-16 23:41:00,,0819.3,5.00,0.00,22.2,21.5,00.0,31.3,23.9,15.7,0001.0,0005.31,0007.99,0004.94
2022-02-16 23:42:00,,0819.2,5.00,0.00,22.2,21.5,00.0,31.3,23.9,15.6,0000.0,0005.22,0007.89,0004.88
2022-02-16 23:43:00,,0819.2,5.00,0.00,22.2,21.5,00.0,31.3,24.0,15.7,0000.0,0005.16,0007.80,0004.83
2022-02-16 23:44:00,,0819.2,5.00,0.00,22.2,21.5,00.0,31.3,23.9,15.7,0000.3,0005.12,0007.70,0004.80
2022-02-16 23:45:00,,0819.2,4.99,0.00,22.2,21.5,00.0,31.3,23.9,15.7,0000.0,0005.11,0007.69,0004.79
2022-02-16 23:46:00,,0819.2,5.01,0.00,22.2,21.4,00.0,31.2,23.9,15.7,0000.3,0005.11,0007.65,0004.80
2022-02-16 23:47:00,,0819.3,5.01,0.00,22.2,21.5,00.0,31.2,23.9,15.7,0000.0,0005.09,0007.59,0004.81
2022-02-16 23:48:00,,0819.4,5.00,0.00,22.2,22.1,00.0,31.3,24.0,15.7,0000.0,0005.11,0007.57,0004.83
2022-02-16 23:49:00,,0819.4,4.99,0.00,22.4,22.9,00.0,31.3,24.3,15.6,0000.0,0005.13,0007.63,0004.83
2022-02-16 23:50:00,,0819.4,5.01,0.00,22.5,23.2,00.0,31.4,24.5,15.5,0000.0,0005.11,0007.61,0004.84
2022-02-16 23:51:00,,0819.4,5.01,0.00,22.6,23.0,00.0,31.4,24.5,15.4,0000.0,0005.11,0007.55,0004.85
2022-02-16 23:52:00,,0819.4,5.00,0.00,22.6,22.7,00.0,31.4,24.4,15.4,0000.0,0005.11,0007.51,0004.86
2022-02-16 23:53:00,,0819.4,4.99,0.00,22.6,22.5,00.0,31.4,24.4,15.4,0000.0,0005.15,0007.55,0004.89
2022-02-16 23:54:00,,0819.5,5.00,0.00,22.5,22.3,00.0,31.4,24.3,15.5,0000.0,0005.19,0007.62,0004.93
2022-02-16 23:55:00,,0819.5,4.99,0.00,22.5,22.2,00.0,31.4,24.2,15.5,0000.0,0005.21,0007.63,0004.94
2022-02-16 23:56:00,,0819.6,5.00,0.00,22.5,22.0,00.0,31.4,24.2,15.5,0000.0,0005.21,0007.69,0004.95
2022-02-16 23:57:00,,0819.5,5.01,0.00,22.4,21.9,00.0,31.4,24.1,15.5,0000.0,0005.18,0007.67,0004.93
2022-02-16 23:58:00,,0819.6,4.99,0.00,22.4,21.8,00.0,31.4,24.1,15.4,-000.3,0005.11,0007.60,0004.85
2022-02-16 23:59:00,,0819.6,5.01,0.00,22.3,21.7,00.0,31.4,24.0,15.4,0000.0,0005.02,0007.53,0004.73
